sat.trackr.live / text

‹ back to catalog

STARLINK-32296

NORAD 61524 · 2024-183R

PAYLOAD ACTIVE UNKNOWN

§ Identity

Operator
Country
US
Launch date
2024-10-15
Launch site
AFETR
Launch vehicle
Mass (kg)
RCS (m²)

Purposes: comms

External: N2YO · Heavens-Above · Gunter

§ Orbital elements

Epoch: 2026-05-24T17:53:39.819264Z

Period
94.01 min
Inclination
53.1603°
Eccentricity
0.0001283
Mean motion
15.31703446 rev/d
Perigee alt
469.9 km
Apogee alt
471.6 km
Semi-major
6,848.9 km
B*
1.5844e-5
RAAN
148.6917°
Arg perigee
80.7392°
Mean anomaly
279.3754°
Rev number
9,130

§ Raw data

STARLINK-322961 61524U 24183R   26144.74559976  .00000127  00000+0  15844-4 0  99902 61524  53.1603 148.6917 0001283  80.7392 279.3754 15.31703446 91301

JSON: /api/v1/satellites/61524 · /tle

For live sub-satellite position, see the globe view (requires WebGL).

§ Visibility from observer

Set your observer location to see the next 7 days of passes ≥ 10°. The values pass through the URL so the page stays shareable.

No JS? Fill the form by hand. The geolocation button needs JavaScript.